Overview Statistics Trail Chart Weather Telemetry Raw packets
 

This is the latest recevied weather packets stored in our database for station/object SV1JSO-13. If no packets are shown the sender has not sent any weather packets the latest 10 day(s).

<< 44 45 46 47 48 49 50 >>
Time Temp. Humidity Pressure Rain* Wind** Luminosity Snow
1788363000 33.33° C 26% 1007.5 hPa 0 mm - 141 W/m² -
1788362700 33.33° C 26% 1007.6 hPa 0 mm - 157 W/m² -
1788362400 33.33° C 26% 1007.5 hPa 0 mm - 169 W/m² -
1788362100 33.89° C 25% 1007.6 hPa 0 mm - 178 W/m² -
1788361800 33.33° C 25% 1007.6 hPa 0 mm - 197 W/m² -
1788361500 33.89° C 25% 1007.6 hPa 0 mm - 209 W/m² -
1788361200 33.89° C 25% 1007.5 hPa 0 mm - 217 W/m² -
1788360900 33.89° C 25% 1007.6 hPa 0 mm - 234 W/m² -
1788360600 33.89° C 25% 1007.6 hPa 0 mm - 248 W/m² -
1788360300 33.89° C 25% 1007.6 hPa 0 mm - 263 W/m² -
1788360000 34.44° C 24% 1007.6 hPa 0 mm - 276 W/m² -
1788359700 33.89° C 24% 1007.7 hPa 0 mm - 293 W/m² -
1788359400 34.44° C 24% 1007.8 hPa 0 mm - 303 W/m² -
1788359100 34.44° C 24% 1007.7 hPa 0 mm - 319 W/m² -
1788358800 34.44° C 24% 1007.7 hPa 0 mm - 337 W/m² -
1788358500 34.44° C 24% 1007.8 hPa 0 mm - 348 W/m² -
1788358200 35° C 24% 1007.7 hPa 0 mm - 362 W/m² -
1788357900 34.44° C 25% 1007.7 hPa 0 mm - 375 W/m² -
1788357600 35° C 24% 1007.8 hPa 0 mm - 391 W/m² -
1788357300 34.44° C 25% 1007.8 hPa 0 mm - 399 W/m² -
1788357000 34.44° C 26% 1007.9 hPa 0 mm - 411 W/m² -
1788356700 34.44° C 26% 1007.7 hPa 0 mm - 428 W/m² -
1788356400 33.89° C 26% 1007.8 hPa 0 mm - 437 W/m² -
1788356100 34.44° C 26% 1007.8 hPa 0 mm - 450 W/m² -
1788355800 34.44° C 26% 1007.8 hPa 0 mm - 461 W/m² -

* Rain latest hour (hover to see other rain measurements)
** Current wind speed in m/s (hover to see current wind gust speed)